Tracking 30145 objects as of 19-Jan-2025
HD Live streaming from Space Station
objects crossing your sky now

SL-12 R/B(AUX MOTOR)

Track SL-12 R/B(AUX MOTOR) now!
10-day predictions


NORAD ID: 33385
Int'l Code: 2008-046H
Perigee: 826.8 km
Apogee: 18,787.9 km
Inclination: 65.2 °
Period: 341.3 minutes
Semi major axis: 16178 km
RCS: 0.543 m2 (medium)
Launch date: September 25, 2008
Source: Commonwealth of Independent States (former USSR) (CIS)
Launch site: TYURATAM MISSILE AND SPACE COMPLEX (TTMTR)

Note: This is a ROCKET BODY
Your satellite tracking list
Your tracking list is empty




NASA's NSSDC Master Catalog

Two Line Element Set (TLE):
1 33385U 08046H   25017.13351258  .00000068  00000-0  68343-3 0  9994
2 33385  65.1718 228.4320 5550962 296.0408  17.8794  4.21891228163715
Source of the keplerian elements: AFSPC